Time,TemperatureF,DewpointF,PressureIn,WindDirection,WindDirectionDegrees,WindSpeedMPH,WindSpeedGustMPH,Humidity,HourlyPrecipIn,Conditions,Clouds,dailyrainin,SoftwareType,DateUTC
2013-10-09 00:00:00,70.6,32.0,30.01,North,6,0.0,3.0,24,0.00,CLR,,0.00,WeatherDisplay:10.37,2013-10-08 21:00:00,
2013-10-09 00:05:00,70.6,32.0,30.01,NNE,14,0.0,4.0,24,0.00,CLR,,0.00,WeatherDisplay:10.37,2013-10-08 21:05:00,
2013-10-09 00:10:00,70.6,32.0,30.01,North,2,0.0,3.0,24,0.00,CLR,,0.00,WeatherDisplay:10.37,2013-10-08 21:10:00,
2013-10-09 00:15:00,70.7,32.1,30.01,North,0,0.0,3.0,24,0.00,CLR,,0.00,WeatherDisplay:10.37,2013-10-08 21:15:00,
2013-10-09 00:20:00,70.7,32.1,30.01,NNW,348,1.0,3.0,24,0.00,CLR,,0.00,WeatherDisplay:10.37,2013-10-08 21:20:00,
2013-10-09 00:25:00,70.7,32.1,30.01,NW,311,0.0,3.0,24,0.00,CLR,,0.00,WeatherDisplay:10.37,2013-10-08 21:25:00,
2013-10-09 00:30:00,70.7,32.1,30.01,NW,304,1.0,3.0,24,0.00,CLR,,0.00,WeatherDisplay:10.37,2013-10-08 21:30:00,
2013-10-09 00:35:00,71.0,31.3,30.01,NW,310,1.0,4.0,23,0.00,CLR,,0.00,WeatherDisplay:10.37,2013-10-08 21:35:00,
2013-10-09 00:40:00,71.2,31.5,30.00,NW,306,0.0,3.0,23,0.00,CLR,,0.00,WeatherDisplay:10.37,2013-10-08 21:40:00,
2013-10-09 00:45:00,71.2,31.5,30.01,WNW,301,0.0,2.0,23,0.00,CLR,,0.00,WeatherDisplay:10.37,2013-10-08 21:45:00,
2013-10-09 00:50:00,71.2,31.5,30.01,NNW,329,0.0,3.0,23,0.00,CLR,,0.00,WeatherDisplay:10.37,2013-10-08 21:50:00,
2013-10-09 00:55:00,71.3,31.6,30.01,North,353,0.0,2.0,23,0.00,CLR,,0.00,WeatherDisplay:10.37,2013-10-08 21:55:00,
2013-10-09 01:00:00,71.3,31.6,30.01,NW,310,0.0,6.0,23,0.00,CLR,,0.00,WeatherDisplay:10.37,2013-10-08 22:00:00,
2013-10-09 01:05:00,71.4,31.7,30.00,NW,305,1.0,6.0,23,0.00,CLR,,0.00,WeatherDisplay:10.37,2013-10-08 22:05:00,
2013-10-09 01:10:00,71.5,31.7,30.01,NW,314,1.0,6.0,23,0.00,CLR,,0.00,WeatherDisplay:10.37,2013-10-08 22:10:00,
2013-10-09 01:15:00,71.5,31.7,30.01,NW,311,0.0,5.0,23,0.00,CLR,,0.00,WeatherDisplay:10.37,2013-10-08 22:15:00,
2013-10-09 01:20:00,71.5,30.6,30.00,WNW,299,1.0,5.0,22,0.00,CLR,,0.00,WeatherDisplay:10.37,2013-10-08 22:20:00,
2013-10-09 01:25:00,71.6,30.7,30.00,WNW,294,0.0,2.0,22,0.00,CLR,,0.00,WeatherDisplay:10.37,2013-10-08 22:25:00,
2013-10-09 01:30:00,71.2,31.4,30.01,West,266,0.0,3.0,23,0.00,CLR,,0.00,WeatherDisplay:10.37,2013-10-08 22:30:00,
2013-10-09 01:35:00,70.9,29.0,30.00,NW,304,1.0,6.0,21,0.00,CLR,,0.00,WeatherDisplay:10.37,2013-10-08 22:35:00,
2013-10-09 01:40:00,71.1,30.3,30.00,NW,305,0.0,2.0,22,0.00,CLR,,0.00,WeatherDisplay:10.37,2013-10-08 22:40:00,
2013-10-09 01:45:00,70.9,29.0,30.00,NW,313,0.0,3.0,21,0.00,CLR,,0.00,WeatherDisplay:10.37,2013-10-08 22:45:00,
2013-10-09 01:50:00,70.6,29.9,30.01,NE,42,0.0,2.0,22,0.00,CLR,,0.00,WeatherDisplay:10.37,2013-10-08 22:50:00,
2013-10-09 01:55:00,70.5,29.8,30.00,NNE,26,0.0,4.0,22,0.00,CLR,,0.00,WeatherDisplay:10.37,2013-10-08 22:55:00,
2013-10-09 02:00:00,70.6,28.7,30.01,NNE,25,1.0,3.0,21,0.00,CLR,,0.00,WeatherDisplay:10.37,2013-10-08 23:00:00,
2013-10-09 02:05:00,70.6,29.9,30.00,NNE,15,1.0,4.0,22,0.00,CLR,,0.00,WeatherDisplay:10.37,2013-10-08 23:05:00,
2013-10-09 02:10:00,70.7,28.8,30.00,North,8,1.0,3.0,21,0.00,CLR,,0.00,WeatherDisplay:10.37,2013-10-08 23:10:00,
2013-10-09 02:15:00,70.7,28.8,30.00,North,11,1.0,4.0,21,0.00,CLR,,0.00,WeatherDisplay:10.37,2013-10-08 23:15:00,
2013-10-09 02:20:00,71.0,27.9,30.00,NW,320,0.0,5.0,20,0.00,CLR,,0.00,WeatherDisplay:10.37,2013-10-08 23:20:00,
2013-10-09 02:30:00,71.1,28.0,30.00,North,1,0.0,3.0,20,0.00,CLR,,0.00,WeatherDisplay:10.37,2013-10-08 23:30:00,
2013-10-09 02:35:00,70.9,29.0,30.00,North,354,0.0,3.0,21,0.00,CLR,,0.00,WeatherDisplay:10.37,2013-10-08 23:35:00,
2013-10-09 02:40:00,70.7,28.8,30.00,NNW,344,0.0,3.0,21,0.00,CLR,,0.00,WeatherDisplay:10.37,2013-10-08 23:40:00,
2013-10-09 02:45:00,70.4,28.6,30.00,North,355,0.0,1.0,21,0.00,CLR,,0.00,WeatherDisplay:10.37,2013-10-08 23:45:00,
2013-10-09 02:50:00,70.1,28.3,30.00,NNW,331,0.0,5.0,21,0.00,CLR,,0.00,WeatherDisplay:10.37,2013-10-08 23:50:00,
2013-10-09 02:55:00,69.8,28.1,30.00,North,6,0.0,2.0,21,0.00,CLR,,0.00,WeatherDisplay:10.37,2013-10-08 23:55:00,
2013-10-09 03:00:00,69.7,28.0,30.00,NW,323,1.0,4.0,21,0.00,CLR,,0.00,WeatherDisplay:10.37,2013-10-09 00:00:00,
2013-10-09 03:05:00,70.2,28.4,30.00,NNW,329,1.0,6.0,21,0.00,CLR,,0.00,WeatherDisplay:10.37,2013-10-09 00:05:00,
2013-10-09 03:10:00,70.5,27.5,30.00,NW,326,2.0,6.0,20,0.00,CLR,,0.00,WeatherDisplay:10.37,2013-10-09 00:10:00,
2013-10-09 03:15:00,70.7,27.6,30.00,NW,324,2.0,5.0,20,0.00,CLR,,0.00,WeatherDisplay:10.37,2013-10-09 00:15:00,
2013-10-09 03:20:00,70.9,27.8,30.00,NNW,331,1.0,4.0,20,0.00,CLR,,0.00,WeatherDisplay:10.37,2013-10-09 00:20:00,
2013-10-09 03:25:00,71.0,27.9,30.00,NW,319,1.0,6.0,20,0.00,CLR,,0.00,WeatherDisplay:10.37,2013-10-09 00:25:00,
2013-10-09 03:30:00,71.1,26.7,30.00,NW,314,1.0,5.0,19,0.00,CLR,,0.00,WeatherDisplay:10.37,2013-10-09 00:30:00,
2013-10-09 03:35:00,71.1,26.7,30.00,WNW,303,1.0,5.0,19,0.00,CLR,,0.00,WeatherDisplay:10.37,2013-10-09 00:35:00,
2013-10-09 03:40:00,71.0,27.9,30.00,WNW,301,2.0,6.0,20,0.00,CLR,,0.00,WeatherDisplay:10.37,2013-10-09 00:40:00,
2013-10-09 03:45:00,71.2,26.8,30.00,NW,305,3.0,7.0,19,0.00,CLR,,0.00,WeatherDisplay:10.37,2013-10-09 00:45:00,
2013-10-09 03:50:00,71.3,26.8,30.00,NW,305,2.0,6.0,19,0.00,CLR,,0.00,WeatherDisplay:10.37,2013-10-09 00:50:00,
2013-10-09 03:55:00,71.2,28.0,30.00,NW,313,0.0,7.0,20,0.00,CLR,,0.00,WeatherDisplay:10.37,2013-10-09 00:55:00,
2013-10-09 04:00:00,71.0,27.9,30.00,NW,313,2.0,5.0,20,0.00,CLR,,0.00,WeatherDisplay:10.37,2013-10-09 01:00:00,
2013-10-09 04:05:00,70.9,27.8,30.00,NW,313,2.0,5.0,20,0.00,CLR,,0.00,WeatherDisplay:10.37,2013-10-09 01:05:00,
2013-10-09 04:10:00,70.8,27.7,30.00,NW,318,0.0,8.0,20,0.00,CLR,,0.00,WeatherDisplay:10.37,2013-10-09 01:10:00,
2013-10-09 04:15:00,70.8,27.7,30.00,NNW,344,0.0,7.0,20,0.00,CLR,,0.00,WeatherDisplay:10.37,2013-10-09 01:15:00,
2013-10-09 04:20:00,70.7,27.6,30.00,NE,54,1.0,6.0,20,0.00,CLR,,0.00,WeatherDisplay:10.37,2013-10-09 01:20:00,
2013-10-09 04:25:00,70.9,27.8,30.00,NNW,340,1.0,4.0,20,0.00,CLR,,0.00,WeatherDisplay:10.37,2013-10-09 01:25:00,
2013-10-09 04:30:00,70.9,27.8,30.00,NW,318,1.0,4.0,20,0.00,CLR,,0.00,WeatherDisplay:10.37,2013-10-09 01:30:00,
2013-10-09 04:35:00,70.9,27.8,30.00,NW,318,2.0,5.0,20,0.00,CLR,,0.00,WeatherDisplay:10.37,2013-10-09 01:35:00,
2013-10-09 04:40:00,70.9,27.8,30.00,NW,309,2.0,6.0,20,0.00,CLR,,0.00,WeatherDisplay:10.37,2013-10-09 01:40:00,
2013-10-09 04:45:00,71.0,27.9,30.00,NW,315,2.0,6.0,20,0.00,CLR,,0.00,WeatherDisplay:10.37,2013-10-09 01:45:00,
2013-10-09 04:50:00,70.9,27.8,30.00,NW,311,1.0,5.0,20,0.00,CLR,,0.00,WeatherDisplay:10.37,2013-10-09 01:50:00,
2013-10-09 04:55:00,70.8,27.7,30.00,NW,316,1.0,5.0,20,0.00,CLR,,0.00,WeatherDisplay:10.37,2013-10-09 01:55:00,
2013-10-09 05:00:00,70.7,27.6,30.00,NW,316,2.0,6.0,20,0.00,CLR,,0.00,WeatherDisplay:10.37,2013-10-09 02:00:00,
2013-10-09 05:05:00,70.6,27.6,30.01,NW,309,3.0,7.0,20,0.00,CLR,,0.00,WeatherDisplay:10.37,2013-10-09 02:05:00,
2013-10-09 05:10:00,70.6,27.6,30.01,NW,308,2.0,6.0,20,0.00,CLR,,0.00,WeatherDisplay:10.37,2013-10-09 02:10:00,
2013-10-09 05:15:00,70.6,27.5,30.01,NW,317,2.0,5.0,20,0.00,CLR,,0.00,WeatherDisplay:10.37,2013-10-09 02:15:00,
2013-10-09 05:20:00,70.5,27.5,30.01,NW,324,2.0,6.0,20,0.00,CLR,,0.00,WeatherDisplay:10.37,2013-10-09 02:20:00,
2013-10-09 05:25:00,70.4,27.4,30.01,NW,316,1.0,6.0,20,0.00,CLR,,0.00,WeatherDisplay:10.37,2013-10-09 02:25:00,
2013-10-09 05:30:00,70.3,27.3,30.01,NW,320,1.0,4.0,20,0.00,CLR,,0.00,WeatherDisplay:10.37,2013-10-09 02:30:00,
2013-10-09 05:35:00,70.2,27.2,30.01,NW,324,1.0,5.0,20,0.00,CLR,,0.00,WeatherDisplay:10.37,2013-10-09 02:35:00,
2013-10-09 05:40:00,70.0,27.0,30.01,NW,317,1.0,4.0,20,0.00,CLR,,0.00,WeatherDisplay:10.37,2013-10-09 02:40:00,
2013-10-09 05:45:00,69.8,28.1,30.01,NW,317,0.0,3.0,21,0.00,CLR,,0.00,WeatherDisplay:10.37,2013-10-09 02:45:00,
2013-10-09 05:50:00,69.5,27.8,30.01,NNW,329,1.0,5.0,21,0.00,CLR,,0.00,WeatherDisplay:10.37,2013-10-09 02:50:00,
2013-10-09 05:55:00,69.3,27.6,30.01,NNW,338,1.0,4.0,21,0.00,CLR,,0.00,WeatherDisplay:10.37,2013-10-09 02:55:00,
2013-10-09 06:00:00,69.1,27.5,30.01,NNW,335,1.0,3.0,21,0.00,CLR,,0.00,WeatherDisplay:10.37,2013-10-09 03:00:00,
2013-10-09 06:05:00,68.9,27.3,30.01,NW,323,0.0,3.0,21,0.00,CLR,,0.00,WeatherDisplay:10.37,2013-10-09 03:05:00,
2013-10-09 06:10:00,68.8,27.2,30.01,NW,312,1.0,4.0,21,0.00,CLR,,0.00,WeatherDisplay:10.37,2013-10-09 03:10:00,
2013-10-09 06:15:00,68.7,28.3,30.02,NNW,342,1.0,3.0,22,0.00,CLR,,0.00,WeatherDisplay:10.37,2013-10-09 03:15:00,
2013-10-09 06:20:00,68.6,28.2,30.02,North,349,0.0,3.0,22,0.00,CLR,,0.00,WeatherDisplay:10.37,2013-10-09 03:20:00,
2013-10-09 06:25:00,68.6,28.2,30.02,NNW,333,1.0,3.0,22,0.00,CLR,,0.00,WeatherDisplay:10.37,2013-10-09 03:25:00,
2013-10-09 06:30:00,68.7,27.2,30.02,NNW,335,0.0,5.0,21,0.00,CLR,,0.00,WeatherDisplay:10.37,2013-10-09 03:30:00,
2013-10-09 06:35:00,68.9,27.3,30.02,NNW,339,1.0,4.0,21,0.00,CLR,,0.00,WeatherDisplay:10.37,2013-10-09 03:35:00,
2013-10-09 06:40:00,68.9,27.3,30.02,North,4,0.0,3.0,21,0.00,CLR,,0.00,WeatherDisplay:10.37,2013-10-09 03:40:00,
2013-10-09 06:45:00,68.8,27.2,30.02,NNW,345,0.0,4.0,21,0.00,CLR,,0.00,WeatherDisplay:10.37,2013-10-09 03:45:00,
2013-10-09 06:50:00,68.6,28.2,30.02,NW,324,0.0,3.0,22,0.00,CLR,,0.00,WeatherDisplay:10.37,2013-10-09 03:50:00,
2013-10-09 06:55:00,68.4,28.0,30.02,NNE,32,1.0,3.0,22,0.00,CLR,,0.00,WeatherDisplay:10.37,2013-10-09 03:55:00,
2013-10-09 07:00:00,68.4,28.0,30.02,North,5,0.0,5.0,22,0.00,CLR,,0.00,WeatherDisplay:10.37,2013-10-09 04:00:00,
2013-10-09 07:05:00,68.4,28.0,30.02,North,356,0.0,4.0,22,0.00,CLR,,0.00,WeatherDisplay:10.37,2013-10-09 04:05:00,
2013-10-09 07:10:00,68.7,27.2,30.02,North,6,1.0,2.0,21,0.00,CLR,,0.00,WeatherDisplay:10.37,2013-10-09 04:10:00,
2013-10-09 07:15:00,69.0,28.6,30.02,North,10,1.0,2.0,22,0.00,CLR,,0.00,WeatherDisplay:10.37,2013-10-09 04:15:00,
2013-10-09 07:20:00,69.4,27.7,30.02,North,355,0.0,3.0,21,0.00,CLR,,0.00,WeatherDisplay:10.37,2013-10-09 04:20:00,
2013-10-09 07:25:00,69.8,29.2,30.02,NE,40,0.0,2.0,22,0.00,CLR,,0.00,WeatherDisplay:10.37,2013-10-09 04:25:00,
2013-10-09 07:30:00,70.2,28.4,30.02,ENE,64,1.0,4.0,21,0.00,CLR,,0.00,WeatherDisplay:10.37,2013-10-09 04:30:00,
2013-10-09 07:35:00,70.7,28.8,30.02,ENE,61,0.0,2.0,21,0.00,CLR,,0.00,WeatherDisplay:10.37,2013-10-09 04:35:00,
2013-10-09 07:40:00,71.1,29.1,30.02,NE,54,1.0,3.0,21,0.00,CLR,,0.00,WeatherDisplay:10.37,2013-10-09 04:40:00,
2013-10-09 07:50:00,71.8,29.7,30.02,North,11,1.0,3.0,21,0.00,CLR,,0.00,WeatherDisplay:10.37,2013-10-09 04:50:00,
2013-10-09 07:55:00,72.0,28.7,30.02,NNE,20,1.0,3.0,20,0.00,CLR,,0.00,WeatherDisplay:10.37,2013-10-09 04:55:00,
2013-10-09 08:00:00,72.6,29.2,30.02,NE,36,1.0,5.0,20,0.00,CLR,,0.00,WeatherDisplay:10.37,2013-10-09 05:00:00,
2013-10-09 08:05:00,73.5,28.7,30.02,ENE,64,2.0,6.0,19,0.00,CLR,,0.00,WeatherDisplay:10.37,2013-10-09 05:05:00,
2013-10-09 08:10:00,74.4,28.1,30.02,ENE,64,2.0,5.0,18,0.00,CLR,,0.00,WeatherDisplay:10.37,2013-10-09 05:10:00,
2013-10-09 08:15:00,75.1,27.3,30.02,NE,52,2.0,12.0,17,0.00,CLR,,0.00,WeatherDisplay:10.37,2013-10-09 05:15:00,
2013-10-09 08:20:00,75.6,27.7,30.02,ENE,60,1.0,8.0,17,0.00,CLR,,0.00,WeatherDisplay:10.37,2013-10-09 05:20:00,
2013-10-09 08:25:00,76.1,28.1,30.02,ENE,68,2.0,6.0,17,0.00,CLR,,0.00,WeatherDisplay:10.37,2013-10-09 05:25:00,
2013-10-09 08:30:00,76.6,27.0,30.02,ENE,57,3.0,12.0,16,0.00,CLR,,0.00,WeatherDisplay:10.37,2013-10-09 05:30:00,
2013-10-09 08:35:00,77.0,27.3,30.02,ENE,57,3.0,12.0,16,0.00,CLR,,0.00,WeatherDisplay:10.37,2013-10-09 05:35:00,
2013-10-09 08:40:00,77.2,25.9,30.02,ENE,69,6.0,12.0,15,0.00,CLR,,0.00,WeatherDisplay:10.37,2013-10-09 05:40:00,
2013-10-09 08:45:00,77.5,26.2,30.02,ENE,72,3.0,12.0,15,0.00,CLR,,0.00,WeatherDisplay:10.37,2013-10-09 05:45:00,
2013-10-09 08:50:00,77.8,26.4,30.02,ENE,69,3.0,10.0,15,0.00,CLR,,0.00,WeatherDisplay:10.37,2013-10-09 05:50:00,
2013-10-09 08:55:00,78.0,26.6,30.02,ENE,71,3.0,9.0,15,0.00,CLR,,0.00,WeatherDisplay:10.37,2013-10-09 05:55:00,
2013-10-09 09:00:00,78.2,26.7,30.02,ENE,71,3.0,9.0,15,0.00,CLR,,0.00,WeatherDisplay:10.37,2013-10-09 06:00:00,
2013-10-09 09:05:00,78.6,27.0,30.02,ENE,70,3.0,9.0,15,0.00,CLR,,0.00,WeatherDisplay:10.37,2013-10-09 06:05:00,
2013-10-09 09:10:00,78.9,27.3,30.02,East,81,3.0,12.0,15,0.00,CLR,,0.00,WeatherDisplay:10.37,2013-10-09 06:10:00,
2013-10-09 09:15:00,79.2,27.6,30.02,East,85,2.0,10.0,15,0.00,CLR,,0.00,WeatherDisplay:10.37,2013-10-09 06:15:00,
2013-10-09 09:20:00,79.7,26.3,30.03,East,85,3.0,9.0,14,0.00,CLR,,0.00,WeatherDisplay:10.37,2013-10-09 06:20:00,
2013-10-09 09:25:00,80.2,28.3,30.02,ENE,78,3.0,13.0,15,0.00,CLR,,0.00,WeatherDisplay:10.37,2013-10-09 06:25:00,
2013-10-09 09:30:00,80.4,26.8,30.02,ENE,65,5.0,9.0,14,0.00,CLR,,0.00,WeatherDisplay:10.37,2013-10-09 06:30:00,
2013-10-09 09:35:00,80.8,27.1,30.02,ENE,69,2.0,9.0,14,0.00,CLR,,0.00,WeatherDisplay:10.37,2013-10-09 06:35:00,
2013-10-09 09:40:00,81.2,27.5,30.02,ENE,64,5.0,9.0,14,0.00,CLR,,0.00,WeatherDisplay:10.37,2013-10-09 06:40:00,
2013-10-09 09:45:00,81.5,27.7,30.02,ENE,76,5.0,12.0,14,0.00,CLR,,0.00,WeatherDisplay:10.37,2013-10-09 06:45:00,
2013-10-09 09:50:00,81.8,26.1,30.02,East,83,6.0,12.0,13,0.00,CLR,,0.00,WeatherDisplay:10.37,2013-10-09 06:50:00,
2013-10-09 09:55:00,82.2,26.4,30.02,ENE,68,5.0,13.0,13,0.00,CLR,,0.00,WeatherDisplay:10.37,2013-10-09 06:55:00,
2013-10-09 10:00:00,82.4,26.6,30.02,ENE,78,3.0,9.0,13,0.00,CLR,,0.00,WeatherDisplay:10.37,2013-10-09 07:00:00,
2013-10-09 10:05:00,82.7,26.8,30.02,ENE,75,5.0,14.0,13,0.00,CLR,,0.00,WeatherDisplay:10.37,2013-10-09 07:05:00,
2013-10-09 10:10:00,82.8,26.9,30.02,East,85,6.0,12.0,13,0.00,CLR,,0.00,WeatherDisplay:10.37,2013-10-09 07:10:00,
2013-10-09 10:15:00,82.9,27.0,30.02,East,91,5.0,12.0,13,0.00,CLR,,0.00,WeatherDisplay:10.37,2013-10-09 07:15:00,
2013-10-09 10:20:00,83.1,27.2,30.02,East,89,6.0,14.0,13,0.00,CLR,,0.00,WeatherDisplay:10.37,2013-10-09 07:20:00,
2013-10-09 10:25:00,83.3,27.3,30.02,East,85,2.0,10.0,13,0.00,CLR,,0.00,WeatherDisplay:10.37,2013-10-09 07:25:00,
2013-10-09 10:30:00,83.9,27.8,30.01,East,87,6.0,10.0,13,0.00,CLR,,0.00,WeatherDisplay:10.37,2013-10-09 07:30:00,
2013-10-09 10:35:00,84.2,26.1,30.01,East,85,5.0,10.0,12,0.00,CLR,,0.00,WeatherDisplay:10.37,2013-10-09 07:35:00,
2013-10-09 10:40:00,84.4,26.2,30.01,ENE,78,6.0,16.0,12,0.00,CLR,,0.00,WeatherDisplay:10.37,2013-10-09 07:40:00,
2013-10-09 10:45:00,84.6,26.4,30.01,East,97,3.0,8.0,12,0.00,CLR,,0.00,WeatherDisplay:10.37,2013-10-09 07:45:00,
2013-10-09 10:50:00,84.7,26.4,30.01,East,93,5.0,12.0,12,0.00,CLR,,0.00,WeatherDisplay:10.37,2013-10-09 07:50:00,
2013-10-09 10:55:00,84.9,26.6,30.01,East,87,3.0,14.0,12,0.00,CLR,,0.00,WeatherDisplay:10.37,2013-10-09 07:55:00,
2013-10-09 11:00:00,85.1,26.8,30.01,East,87,6.0,12.0,12,0.00,CLR,,0.00,WeatherDisplay:10.37,2013-10-09 08:00:00,
2013-10-09 11:05:00,85.3,26.9,30.01,East,84,2.0,10.0,12,0.00,CLR,,0.00,WeatherDisplay:10.37,2013-10-09 08:05:00,
2013-10-09 11:10:00,86.1,27.5,30.01,East,82,5.0,10.0,12,0.00,CLR,,0.00,WeatherDisplay:10.37,2013-10-09 08:10:00,
2013-10-09 11:15:00,86.3,27.7,30.01,East,79,3.0,9.0,12,0.00,CLR,,0.00,WeatherDisplay:10.37,2013-10-09 08:15:00,
2013-10-09 11:20:00,86.3,27.7,30.01,East,90,5.0,12.0,12,0.00,CLR,,0.00,WeatherDisplay:10.37,2013-10-09 08:20:00,
2013-10-09 11:25:00,86.5,27.8,30.01,East,83,3.0,14.0,12,0.00,CLR,,0.00,WeatherDisplay:10.37,2013-10-09 08:25:00,
2013-10-09 11:30:00,86.4,25.7,30.01,East,85,5.0,12.0,11,0.00,CLR,,0.00,WeatherDisplay:10.37,2013-10-09 08:30:00,
2013-10-09 11:35:00,86.5,27.8,30.01,ESE,104,5.0,12.0,12,0.00,CLR,,0.00,WeatherDisplay:10.37,2013-10-09 08:35:00,
2013-10-09 11:40:00,86.5,27.8,30.01,East,96,5.0,15.0,12,0.00,CLR,,0.00,WeatherDisplay:10.37,2013-10-09 08:40:00,
2013-10-09 11:45:00,86.5,25.7,30.00,East,84,5.0,12.0,11,0.00,CLR,,0.00,WeatherDisplay:10.37,2013-10-09 08:45:00,
2013-10-09 11:50:00,86.6,27.9,30.00,East,82,5.0,12.0,12,0.00,CLR,,0.00,WeatherDisplay:10.37,2013-10-09 08:50:00,
2013-10-09 11:55:00,86.7,25.9,30.00,East,85,5.0,10.0,11,0.00,CLR,,0.00,WeatherDisplay:10.37,2013-10-09 08:55:00,
2013-10-09 12:00:00,87.0,28.2,30.00,East,87,5.0,10.0,12,0.00,CLR,,0.00,WeatherDisplay:10.37,2013-10-09 09:00:00,
2013-10-09 12:05:00,87.4,28.5,30.00,East,89,3.0,10.0,12,0.00,CLR,,0.00,WeatherDisplay:10.37,2013-10-09 09:05:00,
2013-10-09 12:10:00,87.7,26.6,30.00,East,91,2.0,13.0,11,0.00,CLR,,0.00,WeatherDisplay:10.37,2013-10-09 09:10:00,
2013-10-09 12:15:00,88.2,27.1,30.00,East,95,2.0,10.0,11,0.00,CLR,,0.00,WeatherDisplay:10.37,2013-10-09 09:15:00,
2013-10-09 12:20:00,88.5,27.3,29.99,East,85,3.0,12.0,11,0.00,CLR,,0.00,WeatherDisplay:10.37,2013-10-09 09:20:00,
2013-10-09 12:25:00,88.6,27.3,29.99,East,83,2.0,10.0,11,0.00,CLR,,0.00,WeatherDisplay:10.37,2013-10-09 09:25:00,
2013-10-09 12:30:00,88.6,27.3,29.99,East,91,3.0,13.0,11,0.00,CLR,,0.00,WeatherDisplay:10.37,2013-10-09 09:30:00,
2013-10-09 12:35:00,88.9,27.6,29.99,East,89,3.0,8.0,11,0.00,CLR,,0.00,WeatherDisplay:10.37,2013-10-09 09:35:00,
2013-10-09 12:40:00,89.2,29.9,29.99,East,94,1.0,9.0,12,0.00,CLR,,0.00,WeatherDisplay:10.37,2013-10-09 09:40:00,
2013-10-09 12:45:00,89.4,28.0,29.99,East,98,3.0,14.0,11,0.00,CLR,,0.00,WeatherDisplay:10.37,2013-10-09 09:45:00,
2013-10-09 12:50:00,89.2,27.8,29.99,East,98,5.0,12.0,11,0.00,CLR,,0.00,WeatherDisplay:10.37,2013-10-09 09:50:00,
2013-10-09 12:55:00,89.0,27.7,29.99,East,83,2.0,10.0,11,0.00,CLR,,0.00,WeatherDisplay:10.37,2013-10-09 09:55:00,
2013-10-09 13:00:00,89.5,28.0,29.98,East,86,3.0,7.0,11,0.00,CLR,,0.00,WeatherDisplay:10.37,2013-10-09 10:00:00,
2013-10-09 13:05:00,89.6,28.1,29.98,East,96,3.0,9.0,11,0.00,CLR,,0.00,WeatherDisplay:10.37,2013-10-09 10:05:00,
2013-10-09 13:10:00,89.8,28.3,29.98,East,93,2.0,9.0,11,0.00,CLR,,0.00,WeatherDisplay:10.37,2013-10-09 10:10:00,
2013-10-09 13:15:00,89.9,28.3,29.98,East,81,2.0,10.0,11,0.00,CLR,,0.00,WeatherDisplay:10.37,2013-10-09 10:15:00,
2013-10-09 13:20:00,90.0,28.4,29.98,East,88,5.0,12.0,11,0.00,CLR,,0.00,WeatherDisplay:10.37,2013-10-09 10:20:00,
2013-10-09 13:25:00,90.3,28.7,29.97,East,82,5.0,9.0,11,0.00,CLR,,0.00,WeatherDisplay:10.37,2013-10-09 10:25:00,
2013-10-09 13:30:00,90.3,28.7,29.97,East,80,2.0,9.0,11,0.00,CLR,,0.00,WeatherDisplay:10.37,2013-10-09 10:30:00,
2013-10-09 13:35:00,90.3,28.7,29.97,ENE,74,2.0,9.0,11,0.00,CLR,,0.00,WeatherDisplay:10.37,2013-10-09 10:35:00,
2013-10-09 13:40:00,90.5,28.8,29.97,East,80,2.0,8.0,11,0.00,CLR,,0.00,WeatherDisplay:10.37,2013-10-09 10:40:00,
2013-10-09 13:45:00,90.5,28.8,29.97,East,88,3.0,12.0,11,0.00,CLR,,0.00,WeatherDisplay:10.37,2013-10-09 10:45:00,
2013-10-09 13:50:00,90.6,28.9,29.96,East,82,2.0,8.0,11,0.00,CLR,,0.00,WeatherDisplay:10.37,2013-10-09 10:50:00,
2013-10-09 13:55:00,90.8,29.0,29.96,ENE,75,2.0,5.0,11,0.00,CLR,,0.00,WeatherDisplay:10.37,2013-10-09 10:55:00,
2013-10-09 14:00:00,91.0,29.2,29.96,East,81,2.0,6.0,11,0.00,CLR,,0.00,WeatherDisplay:10.37,2013-10-09 11:00:00,
2013-10-09 14:05:00,91.0,29.2,29.96,East,88,3.0,8.0,11,0.00,CLR,,0.00,WeatherDisplay:10.37,2013-10-09 11:05:00,
2013-10-09 14:10:00,90.8,29.0,29.95,East,85,1.0,8.0,11,0.00,CLR,,0.00,WeatherDisplay:10.37,2013-10-09 11:10:00,
2013-10-09 14:15:00,91.3,29.4,29.95,East,86,2.0,8.0,11,0.00,CLR,,0.00,WeatherDisplay:10.37,2013-10-09 11:15:00,
2013-10-09 14:20:00,91.2,29.4,29.95,East,90,1.0,7.0,11,0.00,CLR,,0.00,WeatherDisplay:10.37,2013-10-09 11:20:00,
2013-10-09 14:30:00,91.4,29.5,29.95,East,101,3.0,6.0,11,0.00,CLR,,0.00,WeatherDisplay:10.37,2013-10-09 11:30:00,
2013-10-09 14:35:00,91.5,29.6,29.94,East,98,2.0,5.0,11,0.00,CLR,,0.00,WeatherDisplay:10.37,2013-10-09 11:35:00,
2013-10-09 14:40:00,91.6,29.6,29.94,East,100,2.0,6.0,11,0.00,CLR,,0.00,WeatherDisplay:10.37,2013-10-09 11:40:00,
2013-10-09 14:45:00,91.6,29.6,29.94,East,79,3.0,7.0,11,0.00,CLR,,0.00,WeatherDisplay:10.37,2013-10-09 11:45:00,
2013-10-09 14:50:00,91.5,29.6,29.94,ENE,72,1.0,7.0,11,0.00,CLR,,0.00,WeatherDisplay:10.37,2013-10-09 11:50:00,
2013-10-09 14:55:00,91.6,29.6,29.94,East,82,1.0,7.0,11,0.00,CLR,,0.00,WeatherDisplay:10.37,2013-10-09 11:55:00,
2013-10-09 15:00:00,91.5,29.6,29.94,East,83,2.0,8.0,11,0.00,CLR,,0.00,WeatherDisplay:10.37,2013-10-09 12:00:00,
2013-10-09 15:05:00,91.4,29.5,29.94,East,91,1.0,10.0,11,0.00,CLR,,0.00,WeatherDisplay:10.37,2013-10-09 12:05:00,
2013-10-09 15:10:00,91.4,29.5,29.94,East,97,1.0,6.0,11,0.00,CLR,,0.00,WeatherDisplay:10.37,2013-10-09 12:10:00,
2013-10-09 15:15:00,91.2,29.3,29.94,ENE,70,1.0,5.0,11,0.00,CLR,,0.00,WeatherDisplay:10.37,2013-10-09 12:15:00,
2013-10-09 15:20:00,91.4,29.5,29.94,East,79,2.0,6.0,11,0.00,CLR,,0.00,WeatherDisplay:10.37,2013-10-09 12:20:00,
2013-10-09 15:25:00,91.2,29.4,29.94,ENE,77,2.0,6.0,11,0.00,CLR,,0.00,WeatherDisplay:10.37,2013-10-09 12:25:00,
2013-10-09 15:30:00,90.9,29.1,29.94,ENE,64,2.0,5.0,11,0.00,CLR,,0.00,WeatherDisplay:10.37,2013-10-09 12:30:00,
2013-10-09 15:35:00,91.1,29.3,29.94,ESE,108,2.0,7.0,11,0.00,CLR,,0.00,WeatherDisplay:10.37,2013-10-09 12:35:00,
2013-10-09 15:40:00,91.3,29.4,29.94,ESE,103,1.0,7.0,11,0.00,CLR,,0.00,WeatherDisplay:10.37,2013-10-09 12:40:00,
2013-10-09 15:45:00,91.4,29.5,29.94,ENE,77,0.0,3.0,11,0.00,CLR,,0.00,WeatherDisplay:10.37,2013-10-09 12:45:00,
2013-10-09 15:50:00,91.3,29.4,29.94,ENE,72,1.0,10.0,11,0.00,CLR,,0.00,WeatherDisplay:10.37,2013-10-09 12:50:00,
2013-10-09 15:55:00,91.6,29.6,29.94,ENE,77,1.0,6.0,11,0.00,CLR,,0.00,WeatherDisplay:10.37,2013-10-09 12:55:00,
2013-10-09 16:00:00,91.5,29.6,29.94,ENE,77,1.0,4.0,11,0.00,CLR,,0.00,WeatherDisplay:10.37,2013-10-09 13:00:00,
2013-10-09 16:05:00,91.5,29.6,29.93,ENE,78,1.0,6.0,11,0.00,CLR,,0.00,WeatherDisplay:10.37,2013-10-09 13:05:00,
2013-10-09 16:10:00,91.6,29.6,29.93,East,95,2.0,6.0,11,0.00,CLR,,0.00,WeatherDisplay:10.37,2013-10-09 13:10:00,
2013-10-09 16:15:00,91.5,29.6,29.93,East,100,1.0,3.0,11,0.00,CLR,,0.00,WeatherDisplay:10.37,2013-10-09 13:15:00,
2013-10-09 16:20:00,91.5,29.6,29.93,East,79,2.0,4.0,11,0.00,CLR,,0.00,WeatherDisplay:10.37,2013-10-09 13:20:00,
2013-10-09 16:25:00,91.6,29.6,29.93,East,93,2.0,7.0,11,0.00,CLR,,0.00,WeatherDisplay:10.37,2013-10-09 13:25:00,
2013-10-09 16:30:00,91.4,29.5,29.93,ESE,114,1.0,4.0,11,0.00,CLR,,0.00,WeatherDisplay:10.37,2013-10-09 13:30:00,
2013-10-09 16:35:00,91.2,31.5,29.93,NNE,30,1.0,4.0,12,0.00,CLR,,0.00,WeatherDisplay:10.37,2013-10-09 13:35:00,
2013-10-09 16:40:00,90.7,29.0,29.93,ENE,67,1.0,7.0,11,0.00,CLR,,0.00,WeatherDisplay:10.37,2013-10-09 13:40:00,
2013-10-09 16:45:00,90.6,31.0,29.93,East,85,0.0,5.0,12,0.00,CLR,,0.00,WeatherDisplay:10.37,2013-10-09 13:45:00,
2013-10-09 16:50:00,90.7,31.1,29.93,East,89,0.0,3.0,12,0.00,CLR,,0.00,WeatherDisplay:10.37,2013-10-09 13:50:00,
2013-10-09 16:55:00,90.8,29.0,29.93,East,94,0.0,3.0,11,0.00,CLR,,0.00,WeatherDisplay:10.37,2013-10-09 13:55:00,
2013-10-09 17:00:00,90.8,33.2,29.93,ESE,111,0.0,3.0,13,0.00,CLR,,0.00,WeatherDisplay:10.37,2013-10-09 14:00:00,
2013-10-09 17:05:00,90.7,31.1,29.92,ESE,110,0.0,3.0,12,0.00,CLR,,0.00,WeatherDisplay:10.37,2013-10-09 14:05:00,
2013-10-09 17:10:00,90.2,30.7,29.92,ENE,74,1.0,6.0,12,0.00,CLR,,0.00,WeatherDisplay:10.37,2013-10-09 14:10:00,
2013-10-09 17:15:00,89.7,30.3,29.92,ENE,62,1.0,5.0,12,0.00,CLR,,0.00,WeatherDisplay:10.37,2013-10-09 14:15:00,
2013-10-09 17:20:00,89.5,30.2,29.93,NE,46,1.0,3.0,12,0.00,CLR,,0.00,WeatherDisplay:10.37,2013-10-09 14:20:00,
2013-10-09 17:25:00,89.2,29.9,29.93,ENE,66,1.0,4.0,12,0.00,CLR,,0.00,WeatherDisplay:10.37,2013-10-09 14:25:00,
2013-10-09 17:30:00,88.8,29.6,29.93,East,90,0.0,4.0,12,0.00,CLR,,0.00,WeatherDisplay:10.37,2013-10-09 14:30:00,
2013-10-09 17:35:00,88.6,31.4,29.93,East,85,1.0,2.0,13,0.00,CLR,,0.00,WeatherDisplay:10.37,2013-10-09 14:35:00,
2013-10-09 17:40:00,88.1,31.1,29.93,NE,56,0.0,4.0,13,0.00,CLR,,0.00,WeatherDisplay:10.37,2013-10-09 14:40:00,
2013-10-09 17:45:00,87.6,32.5,29.93,NE,47,0.0,2.0,14,0.00,CLR,,0.00,WeatherDisplay:10.37,2013-10-09 14:45:00,
2013-10-09 17:50:00,87.0,32.1,29.92,NE,53,1.0,5.0,14,0.00,CLR,,0.00,WeatherDisplay:10.37,2013-10-09 14:50:00,
2013-10-09 17:55:00,86.4,31.5,29.92,NE,38,1.0,5.0,14,0.00,CLR,,0.00,WeatherDisplay:10.37,2013-10-09 14:55:00,
2013-10-09 18:00:00,85.8,31.0,29.92,NE,35,0.0,3.0,14,0.00,CLR,,0.00,WeatherDisplay:10.37,2013-10-09 15:00:00,
2013-10-09 18:05:00,85.2,32.3,29.93,NE,49,1.0,3.0,15,0.00,CLR,,0.00,WeatherDisplay:10.37,2013-10-09 15:05:00,
2013-10-09 18:10:00,84.6,31.9,29.93,ENE,59,1.0,4.0,15,0.00,CLR,,0.00,WeatherDisplay:10.37,2013-10-09 15:10:00,
2013-10-09 18:15:00,84.1,31.4,29.93,ENE,63,1.0,3.0,15,0.00,CLR,,0.00,WeatherDisplay:10.37,2013-10-09 15:15:00,
2013-10-09 18:20:00,83.7,31.1,29.93,NE,56,1.0,3.0,15,0.00,CLR,,0.00,WeatherDisplay:10.37,2013-10-09 15:20:00,
2013-10-09 18:25:00,83.1,32.3,29.93,NE,34,0.0,4.0,16,0.00,CLR,,0.00,WeatherDisplay:10.37,2013-10-09 15:25:00,
2013-10-09 18:30:00,82.6,31.9,29.93,NNE,32,0.0,3.0,16,0.00,CLR,,0.00,WeatherDisplay:10.37,2013-10-09 15:30:00,
2013-10-09 18:40:00,81.8,32.7,29.93,NNE,33,0.0,2.0,17,0.00,CLR,,0.00,WeatherDisplay:10.37,2013-10-09 15:40:00,
2013-10-09 18:45:00,81.3,32.3,29.93,NNE,33,0.0,1.0,17,0.00,CLR,,0.00,WeatherDisplay:10.37,2013-10-09 15:45:00,
2013-10-09 18:50:00,81.0,32.0,29.93,NNE,33,0.0,1.0,17,0.00,CLR,,0.00,WeatherDisplay:10.37,2013-10-09 15:50:00,
2013-10-09 18:55:00,80.5,33.1,29.94,NNE,33,0.0,0.0,18,0.00,CLR,,0.00,WeatherDisplay:10.37,2013-10-09 15:55:00,
2013-10-09 19:00:00,80.1,32.8,29.94,NNE,33,0.0,0.0,18,0.00,CLR,,0.00,WeatherDisplay:10.37,2013-10-09 16:00:00,
2013-10-09 19:05:00,79.7,33.8,29.94,NNE,33,0.0,1.0,19,0.00,CLR,,0.00,WeatherDisplay:10.37,2013-10-09 16:05:00,
2013-10-09 19:10:00,79.0,33.2,29.94,NNE,32,0.0,1.0,19,0.00,CLR,,0.00,WeatherDisplay:10.37,2013-10-09 16:10:00,
2013-10-09 19:15:00,78.6,32.9,29.94,NNE,32,0.0,1.0,19,0.00,CLR,,0.00,WeatherDisplay:10.37,2013-10-09 16:15:00,
2013-10-09 19:20:00,78.2,33.9,29.94,NNE,31,0.0,1.0,20,0.00,CLR,,0.00,WeatherDisplay:10.37,2013-10-09 16:20:00,
2013-10-09 19:25:00,77.9,33.6,29.95,NNE,30,0.0,2.0,20,0.00,CLR,,0.00,WeatherDisplay:10.37,2013-10-09 16:25:00,
2013-10-09 19:30:00,77.7,33.4,29.95,NNE,17,0.0,2.0,20,0.00,CLR,,0.00,WeatherDisplay:10.37,2013-10-09 16:30:00,
2013-10-09 19:35:00,77.5,33.2,29.95,North,2,0.0,2.0,20,0.00,CLR,,0.00,WeatherDisplay:10.37,2013-10-09 16:35:00,
2013-10-09 19:40:00,77.5,32.0,29.95,NNW,347,0.0,2.0,19,0.00,CLR,,0.00,WeatherDisplay:10.37,2013-10-09 16:40:00,
2013-10-09 19:45:00,77.3,31.8,29.95,NNW,336,1.0,2.0,19,0.00,CLR,,0.00,WeatherDisplay:10.37,2013-10-09 16:45:00,
2013-10-09 19:50:00,77.3,33.0,29.95,NNW,333,0.0,2.0,20,0.00,CLR,,0.00,WeatherDisplay:10.37,2013-10-09 16:50:00,
2013-10-09 19:55:00,77.1,32.9,29.95,NNW,332,0.0,3.0,20,0.00,CLR,,0.00,WeatherDisplay:10.37,2013-10-09 16:55:00,
2013-10-09 20:00:00,76.9,32.8,29.95,NNW,331,0.0,1.0,20,0.00,CLR,,0.00,WeatherDisplay:10.37,2013-10-09 17:00:00,
2013-10-09 20:05:00,76.7,32.6,29.95,NNW,331,1.0,3.0,20,0.00,CLR,,0.00,WeatherDisplay:10.37,2013-10-09 17:05:00,
2013-10-09 20:10:00,76.4,33.5,29.96,NNW,331,0.0,2.0,21,0.00,CLR,,0.00,WeatherDisplay:10.37,2013-10-09 17:10:00,
2013-10-09 20:15:00,76.0,34.4,29.96,NW,318,0.0,4.0,22,0.00,CLR,,0.00,WeatherDisplay:10.37,2013-10-09 17:15:00,
2013-10-09 20:20:00,75.7,35.3,29.96,NW,314,1.0,3.0,23,0.00,CLR,,0.00,WeatherDisplay:10.37,2013-10-09 17:20:00,
2013-10-09 20:25:00,75.5,36.2,29.96,NW,320,1.0,3.0,24,0.00,CLR,,0.00,WeatherDisplay:10.37,2013-10-09 17:25:00,
2013-10-09 20:30:00,75.2,36.9,29.96,NW,315,1.0,3.0,25,0.00,CLR,,0.00,WeatherDisplay:10.37,2013-10-09 17:30:00,
2013-10-09 20:35:00,74.8,37.6,29.96,WNW,298,0.0,3.0,26,0.00,CLR,,0.00,WeatherDisplay:10.37,2013-10-09 17:35:00,
2013-10-09 20:40:00,74.3,37.2,29.96,WNW,292,0.0,2.0,26,0.00,CLR,,0.00,WeatherDisplay:10.37,2013-10-09 17:40:00,
2013-10-09 20:45:00,73.8,36.7,29.96,WNW,300,0.0,4.0,26,0.00,CLR,,0.00,WeatherDisplay:10.37,2013-10-09 17:45:00,
2013-10-09 20:50:00,73.2,38.2,29.96,NW,308,1.0,2.0,28,0.00,CLR,,0.00,WeatherDisplay:10.37,2013-10-09 17:50:00,
2013-10-09 20:55:00,72.8,39.5,29.96,NNW,331,1.0,3.0,30,0.00,CLR,,0.00,WeatherDisplay:10.37,2013-10-09 17:55:00,
2013-10-09 21:00:00,72.5,41.0,29.96,NNW,338,1.0,2.0,32,0.00,CLR,,0.00,WeatherDisplay:10.37,2013-10-09 18:00:00,
2013-10-09 21:05:00,72.2,42.2,29.96,North,4,0.0,3.0,34,0.00,CLR,,0.00,WeatherDisplay:10.37,2013-10-09 18:05:00,
2013-10-09 21:10:00,71.9,43.5,29.96,NNE,21,0.0,2.0,36,0.00,CLR,,0.00,WeatherDisplay:10.37,2013-10-09 18:10:00,
2013-10-09 21:15:00,71.7,44.7,29.96,NNE,15,1.0,2.0,38,0.00,CLR,,0.00,WeatherDisplay:10.37,2013-10-09 18:15:00,
2013-10-09 21:20:00,71.5,45.2,29.96,North,6,1.0,3.0,39,0.00,CLR,,0.00,WeatherDisplay:10.37,2013-10-09 18:20:00,
2013-10-09 21:25:00,71.2,45.6,29.96,NW,321,1.0,4.0,40,0.00,CLR,,0.00,WeatherDisplay:10.37,2013-10-09 18:25:00,
2013-10-09 21:30:00,70.9,46.0,29.96,NNW,331,0.0,4.0,41,0.00,CLR,,0.00,WeatherDisplay:10.37,2013-10-09 18:30:00,
2013-10-09 21:35:00,70.7,46.5,29.96,NNW,342,1.0,3.0,42,0.00,CLR,,0.00,WeatherDisplay:10.37,2013-10-09 18:35:00,
2013-10-09 21:40:00,70.5,46.9,29.96,NNW,341,0.0,3.0,43,0.00,CLR,,0.00,WeatherDisplay:10.37,2013-10-09 18:40:00,
2013-10-09 21:45:00,70.2,46.7,29.96,North,352,1.0,2.0,43,0.00,CLR,,0.00,WeatherDisplay:10.37,2013-10-09 18:45:00,
2013-10-09 21:50:00,70.1,46.6,29.96,North,3,0.0,3.0,43,0.00,CLR,,0.00,WeatherDisplay:10.37,2013-10-09 18:50:00,
2013-10-09 21:55:00,70.0,46.4,29.96,NNE,17,1.0,2.0,43,0.00,CLR,,0.00,WeatherDisplay:10.37,2013-10-09 18:55:00,
2013-10-09 22:00:00,69.8,46.3,29.96,North,349,1.0,3.0,43,0.00,CLR,,0.00,WeatherDisplay:10.37,2013-10-09 19:00:00,
2013-10-09 22:05:00,69.6,46.1,29.96,NNW,337,1.0,3.0,43,0.00,CLR,,0.00,WeatherDisplay:10.37,2013-10-09 19:05:00,
2013-10-09 22:10:00,69.4,46.5,29.96,NNW,329,1.0,4.0,44,0.00,CLR,,0.00,WeatherDisplay:10.37,2013-10-09 19:10:00,
2013-10-09 22:15:00,69.2,45.7,29.96,NNW,330,1.0,3.0,43,0.00,CLR,,0.00,WeatherDisplay:10.37,2013-10-09 19:15:00,
2013-10-09 22:20:00,69.1,45.7,29.96,NNW,338,1.0,4.0,43,0.00,CLR,,0.00,WeatherDisplay:10.37,2013-10-09 19:20:00,
2013-10-09 22:25:00,69.1,45.7,29.96,NW,321,1.0,6.0,43,0.00,CLR,,0.00,WeatherDisplay:10.37,2013-10-09 19:25:00,
2013-10-09 22:30:00,69.0,44.9,29.96,NW,323,1.0,5.0,42,0.00,CLR,,0.00,WeatherDisplay:10.37,2013-10-09 19:30:00,
2013-10-09 22:35:00,69.0,44.9,29.96,NNW,328,2.0,4.0,42,0.00,CLR,,0.00,WeatherDisplay:10.37,2013-10-09 19:35:00,
2013-10-09 22:40:00,69.0,45.0,29.96,NNW,331,0.0,6.0,42,0.00,CLR,,0.00,WeatherDisplay:10.37,2013-10-09 19:40:00,
2013-10-09 22:45:00,69.0,44.3,29.96,NNW,336,1.0,5.0,41,0.00,CLR,,0.00,WeatherDisplay:10.37,2013-10-09 19:45:00,
2013-10-09 22:50:00,69.1,44.4,29.96,NNW,339,1.0,5.0,41,0.00,CLR,,0.00,WeatherDisplay:10.37,2013-10-09 19:50:00,
2013-10-09 22:55:00,69.3,43.3,29.96,NW,326,1.0,5.0,39,0.00,CLR,,0.00,WeatherDisplay:10.37,2013-10-09 19:55:00,
2013-10-09 23:00:00,69.5,43.4,29.96,NW,314,1.0,5.0,39,0.00,CLR,,0.00,WeatherDisplay:10.37,2013-10-09 20:00:00,
2013-10-09 23:05:00,69.6,42.2,29.96,NW,317,1.0,4.0,37,0.00,CLR,,0.00,WeatherDisplay:10.37,2013-10-09 20:05:00,
2013-10-09 23:10:00,69.6,42.2,29.96,NW,316,1.0,4.0,37,0.00,CLR,,0.00,WeatherDisplay:10.37,2013-10-09 20:10:00,
2013-10-09 23:15:00,69.6,42.2,29.96,NNW,333,1.0,5.0,37,0.00,CLR,,0.00,WeatherDisplay:10.37,2013-10-09 20:15:00,
2013-10-09 23:20:00,69.6,42.2,29.96,NNW,340,1.0,5.0,37,0.00,CLR,,0.00,WeatherDisplay:10.37,2013-10-09 20:20:00,
2013-10-09 23:25:00,69.6,42.2,29.96,North,351,0.0,5.0,37,0.00,CLR,,0.00,WeatherDisplay:10.37,2013-10-09 20:25:00,
2013-10-09 23:30:00,69.4,41.3,29.96,NNW,340,1.0,3.0,36,0.00,CLR,,0.00,WeatherDisplay:10.37,2013-10-09 20:30:00,
2013-10-09 23:40:00,69.3,39.7,29.95,NW,321,1.0,5.0,34,0.00,CLR,,0.00,WeatherDisplay:10.37,2013-10-09 20:40:00,
2013-10-09 23:45:00,69.4,39.8,29.96,NW,306,1.0,4.0,34,0.00,CLR,,0.00,WeatherDisplay:10.37,2013-10-09 20:45:00,
2013-10-09 23:50:00,69.2,39.6,29.96,NNW,346,0.0,3.0,34,0.00,CLR,,0.00,WeatherDisplay:10.37,2013-10-09 20:50:00,
2013-10-09 23:55:00,69.0,39.4,29.96,NNW,346,0.0,3.0,34,0.00,CLR,,0.00,WeatherDisplay:10.37,2013-10-09 20:55:00,